When you browse on this site, cookies collect data to enhance your experience and personalize the content and advertising you see.
Visit our Privacy Policy to learn more. By continuing to use the site, you agree to this use of cookies and data.
  • En España
  • Lista de países
  • Para 7 días
  • Temperatura del agua
  • El tiempo en el mapa
  • Informadores
  • user-avatar
    Iniciar sesión

    Tiempo cada hora Dubno

    Hoy, 3 Junio, Miércoles

    Tiempo Temperatura Precipitaciones Viento Presión Humedad
    00:00 +7°C° 0.1 mm 3 mps 734 mmHg 97%
    01:00 +7°C° 0.1 mm 3 mps 734 mmHg 97%
    02:00 +7°C° 0 mm 3 mps 734 mmHg 98%
    03:00 +7°C° 0 mm 3 mps 734 mmHg 97%
    04:00 +7°C° 0 mm 3 mps 734 mmHg 97%
    05:00 +7°C° 0 mm 3 mps 733 mmHg 96%
    06:00 +8°C° 0 mm 3 mps 734 mmHg 95%
    07:00 +8°C° 0 mm 3 mps 734 mmHg 94%
    08:00 +8°C° 0 mm 3 mps 734 mmHg 93%
    09:00 +8°C° 0.2 mm 3 mps 734 mmHg 92%
    10:00 +9°C° 0.2 mm 3 mps 734 mmHg 90%
    11:00 +8°C° 0.2 mm 4 mps 735 mmHg 89%
    12:00 +10°C° 0.4 mm 3 mps 735 mmHg 85%
    13:00 +11°C° 0.4 mm 3 mps 735 mmHg 80%
    14:00 +12°C° 0.4 mm 3 mps 735 mmHg 76%
    15:00 +13°C° 0.3 mm 3 mps 734 mmHg 76%
    16:00 +13°C° 0.3 mm 3 mps 734 mmHg 76%
    17:00 +13°C° 0.3 mm 3 mps 734 mmHg 76%
    18:00 +12°C° 0.2 mm 3 mps 734 mmHg 81%
    19:00 +12°C° 0.2 mm 2 mps 734 mmHg 86%
    20:00 +10°C° 0.2 mm 2 mps 734 mmHg 91%
    21:00 +9°C° 0 mm 2 mps 734 mmHg 92%
    22:00 +8°C° 0 mm 2 mps 734 mmHg 93%
    23:00 +8°C° 0 mm 3 mps 734 mmHg 94%

    Mañana, 4 Junio, Jueves

    Tiempo Temperatura Precipitaciones Viento Presión Humedad
    00:00 +7°C° 0 mm 3 mps 734 mmHg 94%
    01:00 +7°C° 0 mm 3 mps 734 mmHg 95%
    02:00 +5°C° 0 mm 3 mps 734 mmHg 95%
    03:00 +5°C° 0 mm 3 mps 734 mmHg 95%
    04:00 +5°C° 0 mm 3 mps 734 mmHg 96%
    05:00 +5°C° 0 mm 3 mps 734 mmHg 96%
    06:00 +8°C° 0 mm 3 mps 734 mmHg 93%
    07:00 +10°C° 0 mm 3 mps 734 mmHg 90%
    08:00 +12°C° 0 mm 4 mps 734 mmHg 86%
    09:00 +13°C° 0.1 mm 4 mps 734 mmHg 80%
    10:00 +15°C° 0.1 mm 4 mps 734 mmHg 74%
    11:00 +17°C° 0.1 mm 4 mps 734 mmHg 67%
    12:00 +17°C° 0.3 mm 4 mps 734 mmHg 68%
    13:00 +18°C° 0.3 mm 4 mps 734 mmHg 69%
    14:00 +18°C° 0.3 mm 4 mps 734 mmHg 70%
    15:00 +18°C° 0.3 mm 4 mps 733 mmHg 70%
    16:00 +18°C° 0.3 mm 3 mps 733 mmHg 70%
    17:00 +18°C° 0.3 mm 3 mps 733 mmHg 71%
    18:00 +17°C° 0.1 mm 2 mps 733 mmHg 76%
    19:00 +16°C° 0.1 mm 2 mps 733 mmHg 81%
    20:00 +15°C° 0.1 mm 2 mps 733 mmHg 86%
    21:00 +14°C° 0 mm 2 mps 733 mmHg 88%
    22:00 +14°C° 0 mm 2 mps 733 mmHg 90%
    23:00 +12°C° 0 mm 3 mps 733 mmHg 91%

    Pasado mañana, 5 Junio, Viernes

    Tiempo Temperatura Precipitaciones Viento Presión Humedad
    00:00 +12°C° 0 mm 3 mps 733 mmHg 91%
    01:00 +13°C° 0 mm 3 mps 732 mmHg 91%
    02:00 +13°C° 0 mm 4 mps 732 mmHg 91%
    03:00 +13°C° 0.3 mm 4 mps 732 mmHg 92%
    04:00 +13°C° 0.3 mm 4 mps 732 mmHg 93%
    05:00 +14°C° 0.3 mm 4 mps 732 mmHg 94%
    06:00 +14°C° 0.3 mm 4 mps 732 mmHg 94%
    07:00 +14°C° 0.3 mm 5 mps 732 mmHg 93%
    08:00 +15°C° 0.3 mm 5 mps 732 mmHg 92%
    09:00 +15°C° 0.4 mm 5 mps 733 mmHg 91%
    10:00 +16°C° 0.4 mm 5 mps 733 mmHg 89%
    11:00 +16°C° 0.4 mm 6 mps 733 mmHg 88%
    12:00 +19°C° 0 mm 6 mps 733 mmHg 82%
    13:00 +21°C° 0 mm 7 mps 733 mmHg 75%
    14:00 +23°C° 0 mm 8 mps 733 mmHg 69%
    15:00 +23°C° 0.1 mm 7 mps 733 mmHg 71%
    16:00 +23°C° 0.1 mm 6 mps 733 mmHg 73%
    17:00 +23°C° 0.1 mm 5 mps 733 mmHg 75%
    18:00 +22°C° 0.1 mm 4 mps 733 mmHg 78%
    19:00 +21°C° 0.1 mm 4 mps 733 mmHg 81%
    20:00 +19°C° 0.1 mm 3 mps 733 mmHg 85%
    21:00 +19°C° 0 mm 3 mps 733 mmHg 85%
    22:00 +18°C° 0 mm 3 mps 733 mmHg 85%
    23:00 +17°C° 0 mm 4 mps 734 mmHg 85%

    6 Junio, Sábado

    Tiempo Temperatura Precipitaciones Viento Presión Humedad
    00:00 +17°C° 0 mm 3 mps 734 mmHg 84%
    01:00 +17°C° 0 mm 3 mps 734 mmHg 83%
    02:00 +17°C° 0 mm 3 mps 734 mmHg 81%
    03:00 +17°C° 0 mm 3 mps 734 mmHg 82%
    04:00 +16°C° 0 mm 3 mps 734 mmHg 83%
    05:00 +16°C° 0 mm 3 mps 735 mmHg 84%
    06:00 +17°C° 0 mm 4 mps 735 mmHg 83%
    07:00 +18°C° 0 mm 4 mps 736 mmHg 82%
    08:00 +19°C° 0 mm 4 mps 737 mmHg 81%
    09:00 +19°C° 0.1 mm 5 mps 738 mmHg 78%
    10:00 +20°C° 0.1 mm 5 mps 738 mmHg 75%
    11:00 +21°C° 0.1 mm 5 mps 739 mmHg 72%
    12:00 +22°C° 0.3 mm 4 mps 739 mmHg 71%
    13:00 +22°C° 0.3 mm 4 mps 739 mmHg 70%
    14:00 +22°C° 0.3 mm 3 mps 739 mmHg 68%
    15:00 +22°C° 0 mm 3 mps 740 mmHg 67%
    16:00 +23°C° 0 mm 2 mps 740 mmHg 66%
    17:00 +24°C° 0 mm 2 mps 740 mmHg 64%
    18:00 +21°C° 0 mm 2 mps 740 mmHg 68%
    19:00 +20°C° 0 mm 1 mps 740 mmHg 72%
    20:00 +19°C° 0 mm 1 mps 740 mmHg 76%
    21:00 +18°C° 0 mm 1 mps 740 mmHg 79%
    22:00 +16°C° 0 mm 2 mps 741 mmHg 82%
    23:00 +15°C° 0 mm 2 mps 741 mmHg 85%

    7 Junio, Domingo

    Tiempo Temperatura Precipitaciones Viento Presión Humedad
    00:00 +15°C° 0 mm 2 mps 741 mmHg 87%
    01:00 +15°C° 0 mm 2 mps 741 mmHg 89%
    02:00 +13°C° 0 mm 3 mps 741 mmHg 92%
    03:00 +13°C° 0 mm 3 mps 741 mmHg 92%
    04:00 +13°C° 0 mm 3 mps 741 mmHg 93%
    05:00 +14°C° 0 mm 3 mps 741 mmHg 94%
    06:00 +16°C° 0.3 mm 3 mps 741 mmHg 92%
    07:00 +18°C° 0.3 mm 3 mps 741 mmHg 90%
    08:00 +19°C° 0.3 mm 4 mps 741 mmHg 88%
    09:00 +21°C° 1.1 mm 4 mps 740 mmHg 82%
    10:00 +22°C° 1.1 mm 4 mps 740 mmHg 76%
    11:00 +25°C° 1.1 mm 4 mps 740 mmHg 71%
    12:00 +25°C° 0.8 mm 4 mps 740 mmHg 71%
    13:00 +25°C° 0.8 mm 4 mps 740 mmHg 70%
    14:00 +26°C° 0.8 mm 4 mps 739 mmHg 70%
    15:00 +25°C° 1 mm 3 mps 739 mmHg 73%
    16:00 +25°C° 1 mm 3 mps 739 mmHg 76%
    17:00 +25°C° 1 mm 3 mps 739 mmHg 78%
    18:00 +24°C° 0.5 mm 2 mps 739 mmHg 81%
    19:00 +21°C° 0.5 mm 2 mps 739 mmHg 84%
    20:00 +20°C° 0.5 mm 2 mps 739 mmHg 88%
    21:00 +20°C° 0.1 mm 2 mps 739 mmHg 88%
    22:00 +19°C° 0.1 mm 2 mps 739 mmHg 88%
    23:00 +18°C° 0.1 mm 2 mps 740 mmHg 89%

    8 Junio, Lunes

    Tiempo Temperatura Precipitaciones Viento Presión Humedad
    00:00 +18°C° 0.1 mm 2 mps 740 mmHg 89%
    01:00 +17°C° 0.1 mm 2 mps 740 mmHg 89%
    02:00 +18°C° 0.1 mm 1 mps 740 mmHg 89%
    03:00 +18°C° 0.1 mm 1 mps 740 mmHg 89%
    04:00 +18°C° 0.1 mm 1 mps 740 mmHg 89%
    05:00 +18°C° 0.1 mm 1 mps 740 mmHg 89%
    06:00 +19°C° 0 mm 1 mps 741 mmHg 86%
    07:00 +21°C° 0 mm 1 mps 741 mmHg 82%
    08:00 +22°C° 0 mm 1 mps 741 mmHg 79%
    09:00 +23°C° 0 mm 1 mps 741 mmHg 75%
    10:00 +24°C° 0 mm 2 mps 741 mmHg 72%
    11:00 +25°C° 0 mm 2 mps 741 mmHg 68%
    12:00 +26°C° 0.1 mm 2 mps 741 mmHg 68%
    13:00 +26°C° 0.1 mm 3 mps 741 mmHg 68%
    14:00 +27°C° 0.1 mm 3 mps 741 mmHg 68%
    15:00 +26°C° 0.9 mm 3 mps 740 mmHg 72%
    16:00 +26°C° 0.9 mm 4 mps 740 mmHg 76%
    17:00 +25°C° 0.9 mm 4 mps 740 mmHg 81%
    18:00 +23°C° 0.3 mm 4 mps 740 mmHg 82%
    19:00 +22°C° 0.3 mm 3 mps 740 mmHg 84%
    20:00 +21°C° 0.3 mm 3 mps 740 mmHg 86%
    21:00 +20°C° 0 mm 3 mps 740 mmHg 88%
    22:00 +20°C° 0 mm 3 mps 740 mmHg 90%
    23:00 +19°C° 0 mm 3 mps 740 mmHg 92%
    Mostrar más